| time (UTC) | temp F | wind direction | speed MPH | gust MPH | rain 1hr in | rain 24hr in | rain mn in | humidity % | barometer mb |
| 20260507144803 | 65 | 5 | 0.0 | 1.0 | 0.07 | 0.80 | 0.63 | 95 | 1010.9 |
| 20260507144303 | 66 | 5 | 0.0 | 0.0 | 0.07 | 0.80 | 0.63 | 96 | 1011.0 |
| 20260507143803 | 65 | 356 | 0.0 | 1.0 | 0.07 | 0.80 | 0.63 | 96 | 1010.9 |
| 20260507143303 | 65 | 331 | 1.0 | 2.0 | 0.07 | 0.80 | 0.63 | 96 | 1010.8 |
| 20260507141804 | 65 | 218 | 0.0 | 0.0 | 0.05 | 0.78 | 0.61 | 96 | 1011.1 |
| 20260507141304 | 65 | 218 | 0.0 | 1.0 | 0.03 | 0.76 | 0.59 | 96 | 1010.9 |
| 20260507140804 | 65 | 218 | 0.0 | 0.0 | 0.02 | 0.75 | 0.58 | 96 | 1010.8 |
| 20260507140303 | 65 | 218 | 0.0 | 1.0 | 0.02 | 0.75 | 0.58 | 96 | 1010.6 |
| 20260507134804 | 64 | 218 | 1.0 | 2.0 | 0.01 | 0.73 | 0.56 | 96 | 1011.3 |
| 20260507134303 | 64 | 300 | 0.0 | 0.0 | 0.02 | 0.73 | 0.56 | 96 | 1010.7 |
| 20260507133803 | 64 | 300 | 0.0 | 0.0 | 0.03 | 0.73 | 0.56 | 96 | 1010.0 |
| 20260507131803 | 64 | 326 | 0.0 | 0.0 | 0.08 | 0.73 | 0.56 | 96 | 1010.0 |
| 20260507131303 | 64 | 326 | 0.0 | 0.0 | 0.08 | 0.73 | 0.56 | 96 | 1010.3 |
| 20260507130803 | 64 | 329 | 0.0 | 1.0 | 0.08 | 0.73 | 0.56 | 96 | 1010.3 |
| 20260507124804 | 64 | 307 | 1.0 | 2.0 | 0.07 | 0.72 | 0.55 | 95 | 1010.5 |
| 20260507124304 | 64 | 358 | 1.0 | 3.0 | 0.06 | 0.71 | 0.54 | 95 | 1010.2 |
| 20260507123803 | 65 | 36 | 1.0 | 3.0 | 0.05 | 0.70 | 0.53 | 95 | 1010.2 |
| 20260507121303 | 67 | 277 | 0.0 | 1.0 | 0.00 | 0.65 | 0.48 | 96 | 1009.1 |
| 20260507120804 | 67 | 243 | 0.0 | 2.0 | 0.00 | 0.65 | 0.48 | 96 | 1009.1 |
| 20260507114803 | 67 | 242 | 0.0 | 1.0 | 0.00 | 0.65 | 0.48 | 96 | 1008.7 |
| 20260507113804 | 67 | 242 | 0.0 | 1.0 | 0.00 | 0.65 | 0.48 | 96 | 1008.4 |
| 20260507111804 | 66 | 22 | 1.0 | 2.0 | 0.01 | 0.65 | 0.48 | 96 | 1008.5 |
| 20260507111303 | 66 | 22 | 1.0 | 2.0 | 0.01 | 0.65 | 0.48 | 96 | 1008.5 |
| 20260507110303 | 66 | 22 | 0.0 | 1.0 | 0.05 | 0.65 | 0.48 | 96 | 1008.1 |
| 20260507104803 | 66 | 22 | 0.0 | 1.0 | 0.08 | 0.65 | 0.48 | 96 | 1008.3 |
| 20260507104303 | 66 | 22 | 1.0 | 1.0 | 0.08 | 0.65 | 0.48 | 96 | 1008.3 |
| 20260507103304 | 66 | 22 | 1.0 | 1.0 | 0.11 | 0.65 | 0.48 | 96 | 1008.5 |
| 20260507100804 | 64 | 22 | 0.0 | 0.0 | 0.13 | 0.62 | 0.45 | 96 | 1008.9 |
| 20260507100304 | 64 | 22 | 0.0 | 0.0 | 0.11 | 0.60 | 0.43 | 96 | 1008.9 |
| 20260507094304 | 64 | 22 | 0.0 | 0.0 | 0.08 | 0.57 | 0.40 | 95 | 1009.0 |
| 20260507093304 | 64 | 22 | 0.0 | 0.0 | 0.07 | 0.54 | 0.37 | 95 | 1009.8 |
| 20260507091804 | 64 | 22 | 0.0 | 0.0 | 0.04 | 0.50 | 0.33 | 95 | 1009.9 |
| 20260507091304 | 64 | 22 | 0.0 | 0.0 | 0.03 | 0.49 | 0.32 | 95 | 1009.7 |
| 20260507090803 | 64 | 22 | 0.0 | 0.0 | 0.03 | 0.49 | 0.32 | 95 | 1010.0 |
| 20260507090304 | 64 | 22 | 0.0 | 0.0 | 0.03 | 0.49 | 0.32 | 95 | 1010.3 |
| 20260507084804 | 64 | 22 | 0.0 | 0.0 | 0.03 | 0.49 | 0.32 | 95 | 1010.2 |
| 20260507084303 | 64 | 22 | 0.0 | 0.0 | 0.03 | 0.49 | 0.32 | 95 | 1010.2 |
| 20260507083804 | 64 | 22 | 0.0 | 0.0 | 0.02 | 0.48 | 0.31 | 95 | 1010.3 |
| 20260507083303 | 64 | 22 | 0.0 | 1.0 | 0.01 | 0.47 | 0.30 | 95 | 1010.4 |
| 20260507081804 | 64 | 22 | 0.0 | 0.0 | 0.00 | 0.46 | 0.29 | 95 | 1010.5 |
| 20260507080803 | 64 | 22 | 0.0 | 0.0 | 0.00 | 0.46 | 0.29 | 95 | 1010.6 |
| 20260507080304 | 64 | 22 | 0.0 | 0.0 | 0.00 | 0.46 | 0.29 | 95 | 1010.7 |
| 20260507074803 | 64 | 22 | 0.0 | 0.0 | 0.00 | 0.46 | 0.29 | 95 | 1010.4 |
| 20260507074304 | 64 | 22 | 0.0 | 0.0 | 0.01 | 0.46 | 0.29 | 95 | 1010.5 |
| 20260507073804 | 64 | 22 | 0.0 | 1.0 | 0.01 | 0.46 | 0.29 | 95 | 1010.9 |
| 20260507073303 | 64 | 22 | 0.0 | 1.0 | 0.02 | 0.46 | 0.29 | 95 | 1010.8 |
| 20260507071804 | 64 | 22 | 0.0 | 0.0 | 0.03 | 0.46 | 0.29 | 95 | 1010.6 |
| 20260507070303 | 64 | 22 | 0.0 | 0.0 | 0.04 | 0.46 | 0.29 | 95 | 1010.2 |
| 20260507064803 | 65 | 22 | 0.0 | 0.0 | 0.05 | 0.46 | 0.29 | 95 | 1010.2 |
| 20260507064304 | 65 | 22 | 0.0 | 0.0 | 0.04 | 0.45 | 0.28 | 95 | 1010.4 |
| 20260507063803 | 65 | 22 | 0.0 | 0.0 | 0.05 | 0.45 | 0.28 | 95 | 1010.5 |
| 20260507063307 | 65 | 22 | 0.0 | 0.0 | 0.05 | 0.44 | 0.27 | 95 | 1010.6 |
| 20260507061804 | 65 | 22 | 0.0 | 0.0 | 0.15 | 0.43 | 0.26 | 95 | 1011.4 |
| 20260507061304 | 65 | 22 | 0.0 | 0.0 | 0.20 | 0.43 | 0.26 | 95 | 1011.7 |
| 20260507060803 | 65 | 22 | 0.0 | 0.0 | 0.24 | 0.42 | 0.25 | 95 | 1011.8 |
| 20260507060304 | 65 | 22 | 0.0 | 1.0 | 0.24 | 0.42 | 0.25 | 95 | 1011.7 |
| 20260507054804 | 65 | 22 | 0.0 | 0.0 | 0.23 | 0.41 | 0.24 | 95 | 1011.6 |
| 20260507054304 | 65 | 22 | 0.0 | 1.0 | 0.23 | 0.41 | 0.24 | 95 | 1011.4 |
| 20260507053804 | 65 | 18 | 0.0 | 0.0 | 0.22 | 0.40 | 0.23 | 95 | 1011.8 |
| 20260507053304 | 65 | 18 | 0.0 | 1.0 | 0.22 | 0.39 | 0.22 | 94 | 1012.0 |
| 20260507051804 | 65 | 17 | 0.0 | 0.0 | 0.11 | 0.28 | 0.11 | 95 | 1012.7 |
| 20260507051304 | 66 | 17 | 0.0 | 1.0 | 0.06 | 0.23 | 0.06 | 95 | 1012.5 |
| 20260507050804 | 66 | 17 | 0.0 | 1.0 | 0.01 | 0.18 | 0.01 | 94 | 1012.2 |
| 20260507050304 | 66 | 17 | 0.0 | 1.0 | 0.01 | 0.18 | 0.01 | 94 | 1012.1 |
| 20260507044804 | 66 | 17 | 0.0 | 0.0 | 0.01 | 0.18 | 0.01 | 94 | 1012.2 |
| 20260507044304 | 66 | 17 | 0.0 | 0.0 | 0.01 | 0.18 | 0.01 | 94 | 1012.1 |
| 20260507043304 | 67 | 17 | 0.0 | 0.0 | 0.00 | 0.17 | 0.00 | 95 | 1012.2 |
| 20260507041804 | 68 | 17 | 1.0 | 1.0 | 0.00 | 0.17 | 0.00 | 94 | 1012.1 |
| 20260507040821 | 69 | 321 | 0.0 | 0.0 | 0.00 | 0.17 | 0.00 | 94 | 1012.4 |
| 20260507040302 | 69 | 321 | 0.0 | 0.0 | 0.00 | 0.17 | 0.00 | 95 | 1012.3 |
| 20260507034802 | 69 | 321 | 0.0 | 0.0 | 0.01 | 0.17 | 0.17 | 95 | 1012.4 |
| 20260507034303 | 69 | 321 | 0.0 | 0.0 | 0.01 | 0.17 | 0.17 | 95 | 1012.5 |
| 20260507033803 | 69 | 321 | 0.0 | 0.0 | 0.01 | 0.17 | 0.17 | 95 | 1012.3 |
| 20260507031802 | 69 | 321 | 0.0 | 0.0 | 0.03 | 0.17 | 0.17 | 94 | 1012.2 |
| 20260507031303 | 69 | 321 | 0.0 | 0.0 | 0.03 | 0.17 | 0.17 | 94 | 1012.3 |
| 20260507030802 | 69 | 321 | 0.0 | 0.0 | 0.03 | 0.17 | 0.17 | 94 | 1012.5 |
| 20260507030302 | 69 | 321 | 0.0 | 1.0 | 0.03 | 0.17 | 0.17 | 94 | 1012.5 |
| 20260507024802 | 69 | 321 | 0.0 | 0.0 | 0.03 | 0.16 | 0.16 | 94 | 1011.9 |
| 20260507024303 | 69 | 321 | 0.0 | 0.0 | 0.03 | 0.16 | 0.16 | 94 | 1012.0 |
| 20260507023803 | 69 | 321 | 0.0 | 0.0 | 0.03 | 0.16 | 0.16 | 94 | 1012.2 |
| 20260507021802 | 70 | 321 | 0.0 | 0.0 | 0.01 | 0.14 | 0.14 | 94 | 1012.1 |
| 20260507021303 | 70 | 321 | 0.0 | 0.0 | 0.01 | 0.14 | 0.14 | 94 | 1012.0 |
| 20260507020802 | 70 | 321 | 0.0 | 0.0 | 0.01 | 0.14 | 0.14 | 94 | 1012.1 |
| 20260507020303 | 70 | 321 | 0.0 | 1.0 | 0.01 | 0.14 | 0.14 | 94 | 1012.1 |
| 20260507014803 | 70 | 196 | 0.0 | 0.0 | 0.02 | 0.13 | 0.13 | 94 | 1012.2 |
| 20260507014303 | 70 | 196 | 0.0 | 0.0 | 0.02 | 0.13 | 0.13 | 94 | 1012.2 |
| 20260507013802 | 70 | 196 | 0.0 | 0.0 | 0.02 | 0.13 | 0.13 | 94 | 1012.2 |
| 20260507013303 | 70 | 196 | 0.0 | 0.0 | 0.02 | 0.13 | 0.13 | 94 | 1012.2 |
| 20260507011802 | 70 | 196 | 0.0 | 0.0 | 0.04 | 0.13 | 0.13 | 93 | 1012.2 |
| 20260507011302 | 70 | 196 | 0.0 | 0.0 | 0.04 | 0.13 | 0.13 | 93 | 1012.0 |
| 20260507010803 | 70 | 196 | 0.0 | 0.0 | 0.04 | 0.13 | 0.13 | 93 | 1011.9 |
| 20260507004802 | 70 | 196 | 0.0 | 1.0 | 0.02 | 0.11 | 0.11 | 93 | 1011.8 |
| 20260507004303 | 70 | 196 | 0.0 | 0.0 | 0.02 | 0.11 | 0.11 | 93 | 1012.0 |
| 20260507003802 | 70 | 196 | 0.0 | 1.0 | 0.02 | 0.11 | 0.11 | 93 | 1012.1 |
| 20260507001803 | 70 | 196 | 0.0 | 0.0 | 0.02 | 0.09 | 0.09 | 93 | 1011.9 |
| 20260507001303 | 70 | 196 | 0.0 | 0.0 | 0.04 | 0.09 | 0.09 | 93 | 1011.7 |
| 20260507000802 | 70 | 196 | 0.0 | 0.0 | 0.08 | 0.09 | 0.09 | 92 | 1011.6 |
| 20260507000303 | 70 | 196 | 0.0 | 0.0 | 0.09 | 0.09 | 0.09 | 92 | 1011.6 |
| 20260506234803 | 71 | 197 | 0.0 | 0.0 | 0.09 | 0.09 | 0.09 | 92 | 1011.4 |
| 20260506234303 | 71 | 197 | 0.0 | 0.0 | 0.09 | 0.09 | 0.09 | 92 | 1011.3 |
| 20260506233802 | 71 | 197 | 0.0 | 0.0 | 0.09 | 0.09 | 0.09 | 91 | 1011.1 |
| 20260506233303 | 71 | 197 | 0.0 | 1.0 | 0.08 | 0.08 | 0.08 | 90 | 1010.9 |
| 20260506231803 | 73 | 198 | 0.0 | 1.0 | 0.07 | 0.07 | 0.07 | 87 | 1010.5 |
| 20260506231302 | 74 | 198 | 0.0 | 2.0 | 0.05 | 0.05 | 0.05 | 83 | 1011.1 |
| 20260506230803 | 76 | 244 | 0.0 | 1.0 | 0.01 | 0.01 | 0.01 | 79 | 1011.2 |
| 20260506230303 | 77 | 244 | 1.0 | 2.0 | 0.00 | 0.00 | 0.00 | 74 | 1011.0 |
| 20260506224802 | 79 | 216 | 1.0 | 2.0 | 0.00 | 0.00 | 0.00 | 69 | 1011.2 |
| 20260506224302 | 79 | 151 | 2.0 | 3.0 | 0.00 | 0.00 | 0.00 | 69 | 1011.3 |
| 20260506223803 | 79 | 208 | 2.0 | 3.0 | 0.00 | 0.00 | 0.00 | 69 | 1011.2 |
| 20260506221803 | 79 | 255 | 0.0 | 2.0 | 0.00 | 0.00 | 0.00 | 69 | 1011.1 |
| 20260506221302 | 79 | 271 | 1.0 | 3.0 | 0.00 | 0.00 | 0.00 | 68 | 1011.0 |
| 20260506220803 | 80 | 261 | 1.0 | 3.0 | 0.00 | 0.00 | 0.00 | 68 | 1011.0 |
| 20260506220303 | 80 | 193 | 2.0 | 3.0 | 0.00 | 0.00 | 0.00 | 67 | 1011.1 |
| 20260506214803 | 80 | 260 | 1.0 | 3.0 | 0.00 | 0.00 | 0.00 | 66 | 1011.0 |
| 20260506214303 | 80 | 289 | 2.0 | 3.0 | 0.00 | 0.00 | 0.00 | 65 | 1011.0 |
| 20260506213303 | 80 | 256 | 1.0 | 3.0 | 0.00 | 0.00 | 0.00 | 66 | 1011.0 |
| 20260506211803 | 80 | 192 | 1.0 | 3.0 | 0.00 | 0.00 | 0.00 | 65 | 1011.2 |
| 20260506210803 | 80 | 221 | 1.0 | 3.0 | 0.00 | 0.00 | 0.00 | 63 | 1011.3 |
| 20260506210303 | 80 | 196 | 2.0 | 3.0 | 0.00 | 0.00 | 0.00 | 63 | 1011.4 |
| 20260506204803 | 80 | 183 | 2.0 | 3.0 | 0.00 | 0.00 | 0.00 | 62 | 1011.6 |
| 20260506204303 | 80 | 215 | 2.0 | 5.0 | 0.00 | 0.00 | 0.00 | 61 | 1011.7 |
| 20260506203802 | 81 | 175 | 2.0 | 5.0 | 0.00 | 0.00 | 0.00 | 62 | 1011.9 |
| 20260506203303 | 81 | 237 | 2.0 | 7.0 | 0.00 | 0.00 | 0.00 | 60 | 1012.0 |
| 20260506201802 | 83 | 246 | 2.0 | 3.0 | 0.00 | 0.00 | 0.00 | 58 | 1012.0 |
| 20260506201303 | 84 | 195 | 2.0 | 3.0 | 0.00 | 0.00 | 0.00 | 59 | 1012.0 |
| 20260506200803 | 84 | 216 | 1.0 | 3.0 | 0.00 | 0.00 | 0.00 | 59 | 1012.0 |
| 20260506200303 | 83 | 244 | 1.0 | 3.0 | 0.00 | 0.00 | 0.00 | 59 | 1012.1 |
| 20260506194802 | 81 | 227 | 1.0 | 3.0 | 0.00 | 0.00 | 0.00 | 64 | 1012.6 |
| 20260506194303 | 82 | 249 | 2.0 | 3.0 | 0.00 | 0.00 | 0.00 | 63 | 1012.6 |
| 20260506193803 | 81 | 283 | 1.0 | 3.0 | 0.00 | 0.00 | 0.00 | 64 | 1012.7 |
| 20260506193302 | 81 | 263 | 2.0 | 3.0 | 0.00 | 0.00 | 0.00 | 63 | 1012.9 |
| 20260506191803 | 80 | 211 | 1.0 | 3.0 | 0.00 | 0.00 | 0.00 | 63 | 1013.1 |
| 20260506191303 | 79 | 223 | 1.0 | 2.0 | 0.00 | 0.00 | 0.00 | 65 | 1013.2 |
| 20260506190802 | 79 | 228 | 2.0 | 3.0 | 0.00 | 0.00 | 0.00 | 65 | 1013.3 |
| 20260506190303 | 79 | 212 | 1.0 | 7.0 | 0.00 | 0.00 | 0.00 | 64 | 1013.2 |
| 20260506184803 | 78 | 219 | 2.0 | 3.0 | 0.00 | 0.00 | 0.00 | 65 | 1013.4 |
| 20260506184302 | 78 | 220 | 1.0 | 3.0 | 0.00 | 0.00 | 0.00 | 65 | 1013.6 |
| 20260506183802 | 79 | 194 | 1.0 | 3.0 | 0.00 | 0.00 | 0.00 | 65 | 1013.7 |
| 20260506181803 | 78 | 253 | 1.0 | 3.0 | 0.00 | 0.00 | 0.00 | 65 | 1013.7 |
| 20260506181303 | 78 | 235 | 1.0 | 3.0 | 0.00 | 0.00 | 0.00 | 64 | 1013.6 |
| 20260506180803 | 77 | 241 | 1.0 | 3.0 | 0.00 | 0.00 | 0.00 | 64 | 1013.5 |
| 20260506180303 | 77 | 220 | 2.0 | 3.0 | 0.00 | 0.00 | 0.00 | 65 | 1013.5 |
| 20260506174803 | 77 | 255 | 1.0 | 3.0 | 0.00 | 0.00 | 0.00 | 65 | 1013.5 |
| 20260506174303 | 77 | 254 | 2.0 | 3.0 | 0.00 | 0.00 | 0.00 | 65 | 1013.4 |
| 20260506173803 | 77 | 270 | 1.0 | 3.0 | 0.00 | 0.00 | 0.00 | 65 | 1013.4 |
| 20260506171803 | 77 | 220 | 1.0 | 3.0 | 0.00 | 0.00 | 0.00 | 66 | 1014.0 |
| 20260506171303 | 77 | 238 | 1.0 | 3.0 | 0.00 | 0.00 | 0.00 | 68 | 1014.0 |
| 20260506170803 | 77 | 199 | 1.0 | 2.0 | 0.00 | 0.00 | 0.00 | 66 | 1014.1 |
| 20260506163303 | 75 | 243 | 1.0 | 5.0 | 0.00 | 0.00 | 0.00 | 69 | 1014.3 |
| 20260506161803 | 76 | 211 | 1.0 | 3.0 | 0.00 | 0.00 | 0.00 | 67 | 1014.6 |
| 20260506161303 | 75 | 195 | 1.0 | 3.0 | 0.00 | 0.00 | 0.00 | 68 | 1014.6 |
| 20260506160803 | 75 | 225 | 2.0 | 3.0 | 0.00 | 0.00 | 0.00 | 68 | 1014.8 |
| 20260506160303 | 75 | 164 | 1.0 | 3.0 | 0.00 | 0.00 | 0.00 | 68 | 1014.9 |
| 20260506154803 | 73 | 180 | 2.0 | 3.0 | 0.00 | 0.00 | 0.00 | 70 | 1015.2 |
| 20260506154303 | 73 | 192 | 1.0 | 3.0 | 0.00 | 0.00 | 0.00 | 71 | 1015.1 |
| 20260506151803 | 72 | 160 | 1.0 | 3.0 | 0.00 | 0.00 | 0.00 | 73 | 1015.1 |
| 20260506151303 | 72 | 193 | 2.0 | 3.0 | 0.00 | 0.00 | 0.00 | 73 | 1015.0 |
| 20260506150802 | 72 | 207 | 2.0 | 3.0 | 0.00 | 0.00 | 0.00 | 75 | 1015.1 |
| 20260506150304 | 71 | 179 | 3.0 | 8.0 | 0.00 | 0.00 | 0.00 | 73 | 1015.2 |